| time (UTC) | temp C | wind direction | speed KPH | gust KPH | rain 1hr cm | rain 24hr cm | rain mn cm | humidity % | barometer mb |
| 20260508012734 | 8 | 354 | 0.0 | 3.2 | 0.00 | 0.00 | 0.00 | 64 | 1012.1 |
| 20260508012231 | 8 | 29 | 0.0 | 3.2 | 0.00 | 0.00 | 0.00 | 63 | 1012.1 |
| 20260508011729 | 9 | 2 | 3.2 | 3.2 | 0.00 | 0.00 | 0.00 | 63 | 1011.8 |
| 20260508011226 | 9 | 333 | 0.0 | 3.2 | 0.00 | 0.00 | 0.00 | 62 | 1011.9 |
| 20260508010722 | 9 | 37 | 1.6 | 4.8 | 0.00 | 0.00 | 0.00 | 60 | 1011.9 |
| 20260508010221 | 10 | 23 | 1.6 | 4.8 | 0.00 | 0.00 | 0.00 | 59 | 1011.7 |
| 20260508005718 | 10 | 89 | 0.0 | 3.2 | 0.00 | 0.00 | 0.00 | 58 | 1011.9 |
| 20260508005215 | 10 | 358 | 0.0 | 4.8 | 0.00 | 0.00 | 0.00 | 56 | 1011.8 |
| 20260508004710 | 10 | 124 | 0.0 | 4.8 | 0.00 | 0.00 | 0.00 | 55 | 1011.6 |
| 20260508004207 | 11 | 3 | 4.8 | 6.4 | 0.00 | 0.00 | 0.00 | 53 | 1011.5 |
| 20260508003703 | 11 | 2 | 4.8 | 11.3 | 0.00 | 0.00 | 0.00 | 52 | 1011.4 |
| 20260508003201 | 11 | 18 | 3.2 | 6.4 | 0.00 | 0.00 | 0.00 | 51 | 1011.5 |
| 20260508002657 | 11 | 19 | 3.2 | 4.8 | 0.00 | 0.00 | 0.00 | 53 | 1011.3 |
| 20260508002155 | 11 | 12 | 1.6 | 4.8 | 0.00 | 0.00 | 0.00 | 51 | 1011.3 |
| 20260508001650 | 11 | 6 | 4.8 | 8.0 | 0.00 | 0.00 | 0.00 | 51 | 1011.2 |
| 20260508001146 | 11 | 178 | 1.6 | 3.2 | 0.00 | 0.00 | 0.00 | 52 | 1011.2 |
| 20260508000641 | 11 | 356 | 3.2 | 8.0 | 0.00 | 0.00 | 0.00 | 50 | 1011.0 |
| 20260508000134 | 12 | 174 | 0.0 | 8.0 | 0.00 | 0.00 | 0.00 | 49 | 1010.8 |
| 20260507235630 | 12 | 15 | 4.8 | 11.3 | 0.00 | 0.00 | 0.00 | 49 | 1010.7 |
| 20260507235128 | 12 | 94 | 6.4 | 11.3 | 0.00 | 0.00 | 0.00 | 48 | 1010.7 |
| 20260507234624 | 12 | 187 | 3.2 | 27.4 | 0.00 | 0.00 | 0.00 | 47 | 1010.8 |
| 20260507234121 | 12 | 182 | 3.2 | 12.9 | 0.00 | 0.00 | 0.00 | 47 | 1010.5 |
| 20260507233618 | 13 | 357 | 4.8 | 8.0 | 0.00 | 0.00 | 0.00 | 45 | 1010.8 |
| 20260507233117 | 13 | 4 | 3.2 | 8.0 | 0.00 | 0.00 | 0.00 | 44 | 1010.5 |
| 20260507232613 | 13 | 97 | 0.0 | 17.7 | 0.00 | 0.00 | 0.00 | 46 | 1010.5 |
| 20260507232110 | 13 | 211 | 1.6 | 11.3 | 0.00 | 0.00 | 0.00 | 45 | 1010.4 |
| 20260507231606 | 13 | 5 | 4.8 | 11.3 | 0.00 | 0.00 | 0.00 | 43 | 1010.3 |
| 20260507231103 | 13 | 334 | 3.2 | 9.7 | 0.00 | 0.00 | 0.00 | 43 | 1010.4 |
| 20260507230600 | 13 | 5 | 8.0 | 16.1 | 0.00 | 0.00 | 0.00 | 42 | 1010.2 |
| 20260507230056 | 13 | 5 | 11.3 | 17.7 | 0.00 | 0.00 | 0.00 | 42 | 1010.1 |
| 20260507225551 | 13 | 22 | 4.8 | 11.3 | 0.00 | 0.00 | 0.00 | 45 | 1010.3 |
| 20260507225048 | 13 | 51 | 3.2 | 12.9 | 0.00 | 0.00 | 0.00 | 43 | 1010.3 |
| 20260507224544 | 13 | 7 | 4.8 | 16.1 | 0.00 | 0.00 | 0.00 | 42 | 1010.4 |
| 20260507224041 | 13 | 133 | 0.0 | 14.5 | 0.00 | 0.00 | 0.00 | 42 | 1010.1 |
| 20260507223537 | 15 | 9 | 8.0 | 9.7 | 0.00 | 0.00 | 0.00 | 41 | 1009.9 |
| 20260507223034 | 15 | 187 | 0.0 | 9.7 | 0.00 | 0.00 | 0.00 | 41 | 1010.1 |
| 20260507222531 | 15 | 32 | 4.8 | 11.3 | 0.00 | 0.00 | 0.00 | 40 | 1010.0 |
| 20260507222027 | 15 | 16 | 3.2 | 9.7 | 0.00 | 0.00 | 0.00 | 40 | 1009.9 |
| 20260507221524 | 16 | 336 | 1.6 | 9.7 | 0.00 | 0.00 | 0.00 | 40 | 1009.9 |
| 20260507221021 | 16 | 332 | 6.4 | 12.9 | 0.00 | 0.00 | 0.00 | 38 | 1009.6 |
| 20260507220518 | 16 | 317 | 6.4 | 16.1 | 0.00 | 0.00 | 0.00 | 39 | 1009.6 |
| 20260507220015 | 16 | 3 | 8.0 | 14.5 | 0.00 | 0.00 | 0.00 | 39 | 1009.5 |
| 20260507215511 | 16 | 348 | 4.8 | 12.9 | 0.00 | 0.00 | 0.00 | 38 | 1009.5 |
| 20260507215009 | 15 | 352 | 6.4 | 14.5 | 0.00 | 0.00 | 0.00 | 38 | 1009.6 |
| 20260507214506 | 16 | 147 | 3.2 | 14.5 | 0.00 | 0.00 | 0.00 | 39 | 1009.4 |
| 20260507214002 | 16 | 264 | 4.8 | 12.9 | 0.00 | 0.00 | 0.00 | 39 | 1009.4 |
| 20260507213459 | 15 | 351 | 6.4 | 12.9 | 0.00 | 0.00 | 0.00 | 41 | 1009.4 |
| 20260507212955 | 15 | 2 | 1.6 | 6.4 | 0.00 | 0.00 | 0.00 | 41 | 1009.1 |
| 20260507212451 | 16 | 159 | 4.8 | 6.4 | 0.00 | 0.00 | 0.00 | 38 | 1009.2 |
| 20260507211948 | 15 | 224 | 3.2 | 8.0 | 0.00 | 0.00 | 0.00 | 41 | 1009.4 |
| 20260507211445 | 15 | 61 | 3.2 | 16.1 | 0.00 | 0.00 | 0.00 | 40 | 1009.3 |
| 20260507210941 | 16 | 196 | 3.2 | 11.3 | 0.00 | 0.00 | 0.00 | 40 | 1009.1 |
| 20260507210438 | 16 | 183 | 3.2 | 11.3 | 0.00 | 0.00 | 0.00 | 38 | 1009.3 |
| 20260507205934 | 16 | 287 | 6.4 | 11.3 | 0.00 | 0.00 | 0.00 | 38 | 1009.2 |
| 20260507205432 | 16 | 8 | 8.0 | 17.7 | 0.00 | 0.00 | 0.00 | 38 | 1009.0 |
| 20260507204928 | 16 | 341 | 4.8 | 14.5 | 0.00 | 0.00 | 0.00 | 37 | 1009.0 |
| 20260507204419 | 15 | 154 | 3.2 | 14.5 | 0.00 | 0.00 | 0.00 | 41 | 1009.2 |
| 20260507203916 | 17 | 149 | 3.2 | 14.5 | 0.00 | 0.00 | 0.00 | 38 | 1009.1 |
| 20260507203409 | 15 | 152 | 0.0 | 14.5 | 0.00 | 0.00 | 0.00 | 41 | 1009.1 |
| 20260507202905 | 15 | 166 | 3.2 | 11.3 | 0.00 | 0.00 | 0.00 | 43 | 1009.1 |
| 20260507202401 | 16 | 356 | 4.8 | 11.3 | 0.00 | 0.00 | 0.00 | 38 | 1009.1 |
| 20260507201856 | 15 | 199 | 6.4 | 16.1 | 0.00 | 0.00 | 0.00 | 40 | 1009.2 |
| 20260507201352 | 17 | 214 | 3.2 | 11.3 | 0.00 | 0.00 | 0.00 | 35 | 1009.1 |
| 20260507200848 | 17 | 18 | 6.4 | 19.3 | 0.00 | 0.00 | 0.00 | 36 | 1009.3 |
| 20260507200344 | 16 | 6 | 3.2 | 12.9 | 0.00 | 0.00 | 0.00 | 38 | 1009.4 |
| 20260507195841 | 16 | 185 | 1.6 | 8.0 | 0.00 | 0.00 | 0.00 | 37 | 1009.4 |
| 20260507195339 | 16 | 35 | 3.2 | 8.0 | 0.00 | 0.00 | 0.00 | 40 | 1009.4 |
| 20260507194836 | 15 | 323 | 3.2 | 9.7 | 0.00 | 0.00 | 0.00 | 38 | 1009.6 |
| 20260507194332 | 16 | 1 | 6.4 | 11.3 | 0.00 | 0.00 | 0.00 | 39 | 1009.5 |
| 20260507193829 | 16 | 356 | 4.8 | 8.0 | 0.00 | 0.00 | 0.00 | 40 | 1009.5 |
| 20260507193326 | 17 | 0 | 0.0 | 16.1 | 0.00 | 0.00 | 0.00 | 36 | 1009.4 |
| 20260507192821 | 18 | 197 | 4.8 | 8.0 | 0.00 | 0.00 | 0.00 | 35 | 1009.7 |
| 20260507192319 | 17 | 216 | 6.4 | 17.7 | 0.00 | 0.00 | 0.00 | 37 | 1009.6 |
| 20260507191815 | 16 | 359 | 0.0 | 8.0 | 0.00 | 0.00 | 0.00 | 39 | 1009.6 |
| 20260507191311 | 17 | 162 | 3.2 | 9.7 | 0.00 | 0.00 | 0.00 | 40 | 1009.5 |
| 20260507190808 | 15 | 135 | 8.0 | 12.9 | 0.00 | 0.00 | 0.00 | 39 | 1009.6 |
| 20260507190307 | 15 | 354 | 12.9 | 14.5 | 0.00 | 0.00 | 0.00 | 38 | 1009.7 |
| 20260507185805 | 15 | 182 | 1.6 | 9.7 | 0.00 | 0.00 | 0.00 | 43 | 1009.6 |
| 20260507185305 | 15 | 266 | 3.2 | 12.9 | 0.00 | 0.00 | 0.00 | 41 | 1009.6 |
| 20260507184759 | 15 | 352 | 6.4 | 12.9 | 0.00 | 0.00 | 0.00 | 42 | 1009.6 |
| 20260507184257 | 15 | 14 | 4.8 | 9.7 | 0.00 | 0.00 | 0.00 | 43 | 1009.9 |
| 20260507183753 | 15 | 13 | 6.4 | 11.3 | 0.00 | 0.00 | 0.00 | 42 | 1010.1 |
| 20260507183250 | 15 | 229 | 1.6 | 6.4 | 0.00 | 0.00 | 0.00 | 44 | 1010.0 |
| 20260507182747 | 16 | 205 | 3.2 | 9.7 | 0.00 | 0.00 | 0.00 | 41 | 1009.9 |
| 20260507182242 | 15 | 342 | 1.6 | 8.0 | 0.00 | 0.00 | 0.00 | 43 | 1010.0 |
| 20260507181740 | 15 | 154 | 4.8 | 12.9 | 0.00 | 0.00 | 0.00 | 40 | 1010.0 |
| 20260507181236 | 16 | 265 | 0.0 | 6.4 | 0.00 | 0.00 | 0.00 | 44 | 1010.1 |
| 20260507180732 | 15 | 13 | 0.0 | 14.5 | 0.00 | 0.00 | 0.00 | 44 | 1010.1 |
| 20260507180230 | 14 | 1 | 3.2 | 11.3 | 0.00 | 0.00 | 0.00 | 45 | 1010.0 |
| 20260507175725 | 13 | 8 | 1.6 | 6.4 | 0.00 | 0.00 | 0.00 | 47 | 1010.2 |
| 20260507175223 | 15 | 351 | 3.2 | 6.4 | 0.00 | 0.00 | 0.00 | 46 | 1010.0 |
| 20260507174720 | 15 | 312 | 4.8 | 11.3 | 0.00 | 0.00 | 0.00 | 44 | 1010.2 |
| 20260507174217 | 15 | 351 | 4.8 | 6.4 | 0.00 | 0.00 | 0.00 | 46 | 1010.3 |
| 20260507173715 | 15 | 189 | 4.8 | 12.9 | 0.00 | 0.00 | 0.00 | 43 | 1010.3 |
| 20260507173211 | 15 | 198 | 4.8 | 16.1 | 0.00 | 0.00 | 0.00 | 47 | 1010.3 |
| 20260507172707 | 13 | 344 | 3.2 | 6.4 | 0.00 | 0.00 | 0.00 | 47 | 1010.6 |
| 20260507172159 | 13 | 184 | 1.6 | 9.7 | 0.00 | 0.00 | 0.00 | 47 | 1010.5 |
| 20260507171659 | 14 | 200 | 1.6 | 4.8 | 0.00 | 0.00 | 0.00 | 48 | 1010.4 |
| 20260507171156 | 13 | 346 | 6.4 | 11.3 | 0.00 | 0.00 | 0.00 | 46 | 1010.6 |
| 20260507170653 | 15 | 359 | 6.4 | 11.3 | 0.00 | 0.00 | 0.00 | 45 | 1010.5 |
| 20260507170151 | 15 | 239 | 3.2 | 16.1 | 0.00 | 0.00 | 0.00 | 44 | 1010.7 |
| 20260507165646 | 14 | 192 | 6.4 | 12.9 | 0.00 | 0.00 | 0.00 | 46 | 1010.6 |
| 20260507165143 | 15 | 174 | 4.8 | 14.5 | 0.00 | 0.00 | 0.00 | 46 | 1010.7 |
| 20260507164638 | 14 | 5 | 3.2 | 8.0 | 0.00 | 0.00 | 0.00 | 50 | 1010.7 |
| 20260507164135 | 14 | 288 | 4.8 | 14.5 | 0.00 | 0.00 | 0.00 | 47 | 1010.9 |
| 20260507163627 | 14 | 138 | 3.2 | 6.4 | 0.00 | 0.00 | 0.00 | 49 | 1010.8 |
| 20260507163125 | 13 | 154 | 1.6 | 14.5 | 0.00 | 0.00 | 0.00 | 49 | 1010.8 |
| 20260507162620 | 13 | 136 | 4.8 | 9.7 | 0.00 | 0.00 | 0.00 | 52 | 1011.0 |
| 20260507162117 | 13 | 356 | 4.8 | 9.7 | 0.00 | 0.00 | 0.00 | 50 | 1010.9 |
| 20260507161613 | 13 | 69 | 3.2 | 9.7 | 0.00 | 0.00 | 0.00 | 52 | 1010.8 |
| 20260507161110 | 12 | 262 | 0.0 | 8.0 | 0.00 | 0.00 | 0.00 | 55 | 1010.9 |
| 20260507160607 | 13 | 340 | 0.0 | 6.4 | 0.00 | 0.00 | 0.00 | 53 | 1011.2 |
| 20260507155558 | 12 | 7 | 4.8 | 6.4 | 0.00 | 0.00 | 0.00 | 53 | 1011.1 |
| 20260507155055 | 12 | 275 | 0.0 | 11.3 | 0.00 | 0.00 | 0.00 | 53 | 1011.1 |
| 20260507154552 | 12 | 343 | 6.4 | 11.3 | 0.00 | 0.00 | 0.00 | 52 | 1011.3 |
| 20260507154049 | 13 | 156 | 1.6 | 11.3 | 0.00 | 0.00 | 0.00 | 54 | 1011.2 |
| 20260507153546 | 13 | 5 | 4.8 | 9.7 | 0.00 | 0.00 | 0.00 | 49 | 1011.2 |
| 20260507153042 | 13 | 348 | 4.8 | 8.0 | 0.00 | 0.00 | 0.00 | 53 | 1011.1 |
| 20260507152538 | 13 | 332 | 3.2 | 9.7 | 0.00 | 0.00 | 0.00 | 53 | 1011.6 |
| 20260507152035 | 13 | 1 | 6.4 | 9.7 | 0.00 | 0.00 | 0.00 | 50 | 1011.5 |
| 20260507151531 | 12 | 162 | 1.6 | 9.7 | 0.00 | 0.00 | 0.00 | 56 | 1011.5 |
| 20260507151028 | 13 | 39 | 1.6 | 12.9 | 0.00 | 0.00 | 0.00 | 51 | 1011.5 |
| 20260507150525 | 12 | 4 | 4.8 | 8.0 | 0.00 | 0.00 | 0.00 | 54 | 1011.5 |
| 20260507150022 | 12 | 331 | 0.0 | 11.3 | 0.00 | 0.00 | 0.00 | 51 | 1011.5 |
| 20260507145516 | 13 | 42 | 1.6 | 11.3 | 0.00 | 0.00 | 0.00 | 52 | 1011.7 |
| 20260507145015 | 12 | 332 | 1.6 | 8.0 | 0.00 | 0.00 | 0.00 | 53 | 1011.8 |
| 20260507144511 | 12 | 142 | 0.0 | 8.0 | 0.00 | 0.00 | 0.00 | 55 | 1011.8 |
| 20260507144009 | 12 | 19 | 3.2 | 4.8 | 0.00 | 0.00 | 0.00 | 54 | 1011.6 |
| 20260507143506 | 12 | 146 | 1.6 | 6.4 | 0.00 | 0.00 | 0.00 | 56 | 1011.9 |
| 20260507143003 | 12 | 141 | 8.0 | 9.7 | 0.00 | 0.00 | 0.00 | 56 | 1011.8 |
| 20260507142458 | 12 | 128 | 1.6 | 8.0 | 0.00 | 0.00 | 0.00 | 57 | 1012.1 |
| 20260507141955 | 12 | 133 | 1.6 | 11.3 | 0.00 | 0.00 | 0.00 | 56 | 1012.1 |
| 20260507141451 | 11 | 186 | 6.4 | 17.7 | 0.00 | 0.00 | 0.00 | 60 | 1012.1 |
| 20260507140948 | 12 | 182 | 3.2 | 8.0 | 0.00 | 0.00 | 0.00 | 62 | 1012.3 |
| 20260507140445 | 12 | 141 | 3.2 | 3.2 | 0.00 | 0.00 | 0.00 | 66 | 1012.2 |
| 20260507135942 | 11 | 26 | 0.0 | 3.2 | 0.00 | 0.00 | 0.00 | 68 | 1012.3 |
| 20260507135439 | 11 | 355 | 3.2 | 8.0 | 0.00 | 0.00 | 0.00 | 66 | 1012.2 |
| 20260507134936 | 11 | 164 | 3.2 | 9.7 | 0.00 | 0.00 | 0.00 | 67 | 1012.5 |
| 20260507134433 | 11 | 13 | 3.2 | 6.4 | 0.00 | 0.00 | 0.00 | 70 | 1012.6 |
| 20260507133929 | 10 | 155 | 6.4 | 9.7 | 0.00 | 0.00 | 0.00 | 67 | 1012.6 |
| 20260507133424 | 10 | 179 | 3.2 | 6.4 | 0.00 | 0.00 | 0.00 | 70 | 1012.7 |
| 20260507132918 | 10 | 353 | 4.8 | 8.0 | 0.00 | 0.00 | 0.00 | 70 | 1012.4 |
| 20260507132413 | 10 | 160 | 3.2 | 11.3 | 0.00 | 0.00 | 0.00 | 69 | 1012.6 |
| 20260507131910 | 10 | 21 | 4.8 | 8.0 | 0.00 | 0.00 | 0.00 | 69 | 1012.6 |
| 20260507131407 | 10 | 200 | 0.0 | 8.0 | 0.00 | 0.00 | 0.00 | 71 | 1012.5 |
| 20260507130904 | 10 | 343 | 3.2 | 8.0 | 0.00 | 0.00 | 0.00 | 71 | 1012.6 |
| 20260507130401 | 9 | 46 | 0.0 | 4.8 | 0.00 | 0.00 | 0.00 | 74 | 1012.7 |
| 20260507125900 | 9 | 28 | 0.0 | 3.2 | 0.00 | 0.00 | 0.00 | 76 | 1012.7 |
| 20260507125357 | 8 | 122 | 0.0 | 9.7 | 0.00 | 0.00 | 0.00 | 77 | 1012.5 |
| 20260507124855 | 8 | 77 | 3.2 | 8.0 | 0.00 | 0.00 | 0.00 | 77 | 1012.6 |
| 20260507124350 | 8 | 160 | 1.6 | 8.0 | 0.00 | 0.00 | 0.00 | 77 | 1012.7 |
| 20260507123849 | 8 | 279 | 3.2 | 9.7 | 0.00 | 0.00 | 0.00 | 78 | 1012.6 |
| 20260507123346 | 8 | 189 | 3.2 | 6.4 | 0.00 | 0.00 | 0.00 | 80 | 1012.7 |
| 20260507122842 | 7 | 146 | 1.6 | 9.7 | 0.00 | 0.00 | 0.00 | 80 | 1012.5 |
| 20260507122337 | 7 | 137 | 1.6 | 4.8 | 0.00 | 0.00 | 0.00 | 82 | 1012.6 |
| 20260507121834 | 7 | 150 | 0.0 | 3.2 | 0.00 | 0.00 | 0.00 | 85 | 1012.6 |
| 20260507121330 | 7 | 223 | 3.2 | 3.2 | 0.00 | 0.00 | 0.00 | 87 | 1012.7 |
| 20260507120827 | 6 | 182 | 3.2 | 6.4 | 0.00 | 0.00 | 0.00 | 91 | 1012.5 |
| 20260507120323 | 6 | 89 | 0.0 | 3.2 | 0.00 | 0.00 | 0.00 | 93 | 1012.5 |
| 20260507115819 | 6 | 72 | 0.0 | 3.2 | 0.00 | 0.00 | 0.00 | 94 | 1012.6 |
| 20260507115315 | 6 | 104 | 0.0 | 3.2 | 0.00 | 0.00 | 0.00 | 95 | 1012.6 |
| 20260507114811 | 5 | 169 | 0.0 | 1.6 | 0.00 | 0.00 | 0.00 | 96 | 1012.8 |
| 20260507114308 | 5 | 66 | 0.0 | 1.6 | 0.00 | 0.00 | 0.00 | 96 | 1012.7 |
| 20260507113806 | 4 | 89 | 0.0 | 1.6 | 0.00 | 0.00 | 0.00 | 96 | 1012.7 |
| 20260507113302 | 4 | 24 | 0.0 | 3.2 | 0.00 | 0.00 | 0.00 | 96 | 1012.7 |
| 20260507112800 | 3 | 89 | 0.0 | 3.2 | 0.00 | 0.00 | 0.00 | 96 | 1012.7 |
| 20260507112257 | 3 | 60 | 0.0 | 1.6 | 0.00 | 0.00 | 0.00 | 96 | 1012.6 |
| 20260507111755 | 3 | 44 | 0.0 | 3.2 | 0.00 | 0.00 | 0.00 | 96 | 1012.4 |
| 20260507111250 | 3 | 60 | 0.0 | 3.2 | 0.00 | 0.00 | 0.00 | 96 | 1012.5 |
| 20260507110746 | 2 | 32 | 0.0 | 3.2 | 0.00 | 0.00 | 0.00 | 96 | 1012.3 |
| 20260507110238 | 2 | 113 | 0.0 | 1.6 | 0.00 | 0.00 | 0.00 | 95 | 1012.4 |
| 20260507105735 | 2 | 127 | 0.0 | 3.2 | 0.00 | 0.00 | 0.00 | 95 | 1012.3 |
| 20260507105231 | 2 | 32 | 0.0 | 3.2 | 0.00 | 0.00 | 0.00 | 95 | 1012.3 |
| 20260507104728 | 2 | 58 | 0.0 | 3.2 | 0.00 | 0.00 | 0.00 | 95 | 1012.3 |
| 20260507104225 | 2 | 11 | 0.0 | 3.2 | 0.00 | 0.00 | 0.00 | 94 | 1012.2 |
| 20260507103721 | 2 | 132 | 0.0 | 3.2 | 0.00 | 0.00 | 0.00 | 95 | 1012.2 |
| 20260507103217 | 2 | 102 | 0.0 | 3.2 | 0.00 | 0.00 | 0.00 | 95 | 1012.0 |
| 20260507102713 | 2 | 89 | 0.0 | 1.6 | 0.00 | 0.00 | 0.00 | 94 | 1012.0 |
| 20260507102204 | 2 | 113 | 0.0 | 3.2 | 0.00 | 0.00 | 0.00 | 94 | 1012.1 |
| 20260507101700 | 2 | 74 | 1.6 | 3.2 | 0.00 | 0.00 | 0.00 | 94 | 1012.1 |
| 20260507101156 | 2 | 156 | 0.0 | 3.2 | 0.00 | 0.00 | 0.00 | 95 | 1011.9 |
| 20260507100653 | 2 | 135 | 0.0 | 3.2 | 0.00 | 0.00 | 0.00 | 94 | 1012.3 |
| 20260507100152 | 2 | 111 | 0.0 | 3.2 | 0.00 | 0.00 | 0.00 | 95 | 1012.0 |
| 20260507095649 | 2 | 58 | 0.0 | 4.8 | 0.00 | 0.00 | 0.00 | 95 | 1012.1 |
| 20260507095146 | 2 | 120 | 0.0 | 3.2 | 0.00 | 0.00 | 0.00 | 95 | 1012.1 |
| 20260507094642 | 2 | 75 | 1.6 | 3.2 | 0.00 | 0.00 | 0.00 | 95 | 1012.1 |
| 20260507094139 | 2 | 156 | 0.0 | 3.2 | 0.00 | 0.00 | 0.00 | 94 | 1012.0 |
| 20260507093636 | 2 | 110 | 0.0 | 3.2 | 0.00 | 0.00 | 0.00 | 95 | 1012.0 |
| 20260507093135 | 2 | 70 | 0.0 | 1.6 | 0.00 | 0.00 | 0.00 | 95 | 1011.8 |
| 20260507092631 | 2 | 12 | 0.0 | 3.2 | 0.00 | 0.00 | 0.00 | 95 | 1012.1 |
| 20260507092128 | 2 | 32 | 0.0 | 3.2 | 0.00 | 0.00 | 0.00 | 95 | 1012.1 |
| 20260507091624 | 2 | 126 | 1.6 | 3.2 | 0.00 | 0.00 | 0.00 | 95 | 1012.3 |
| 20260507091120 | 2 | 113 | 0.0 | 3.2 | 0.00 | 0.00 | 0.00 | 95 | 1012.2 |
| 20260507090616 | 3 | 89 | 0.0 | 3.2 | 0.00 | 0.00 | 0.00 | 95 | 1012.1 |
| 20260507090114 | 3 | 71 | 0.0 | 1.6 | 0.00 | 0.00 | 0.00 | 95 | 1012.2 |
| 20260507085610 | 3 | 98 | 0.0 | 3.2 | 0.00 | 0.00 | 0.00 | 95 | 1012.4 |
| 20260507085107 | 2 | 164 | 0.0 | 3.2 | 0.00 | 0.00 | 0.00 | 95 | 1012.1 |
| 20260507084604 | 2 | 141 | 0.0 | 3.2 | 0.00 | 0.00 | 0.00 | 95 | 1012.0 |
| 20260507084101 | 2 | 133 | 0.0 | 3.2 | 0.00 | 0.00 | 0.00 | 95 | 1012.2 |
| 20260507083557 | 2 | 113 | 0.0 | 3.2 | 0.00 | 0.00 | 0.00 | 95 | 1012.1 |
| 20260507083054 | 3 | 33 | 1.6 | 3.2 | 0.00 | 0.00 | 0.00 | 94 | 1012.4 |
| 20260507082550 | 3 | 11 | 0.0 | 3.2 | 0.00 | 0.00 | 0.00 | 94 | 1012.1 |
| 20260507082047 | 3 | 113 | 0.0 | 3.2 | 0.00 | 0.00 | 0.00 | 94 | 1012.3 |
| 20260507081543 | 3 | 135 | 0.0 | 1.6 | 0.00 | 0.00 | 0.00 | 94 | 1012.1 |
| 20260507081040 | 3 | 89 | 0.0 | 1.6 | 0.00 | 0.00 | 0.00 | 94 | 1012.1 |
| 20260507080536 | 3 | 15 | 0.0 | 3.2 | 0.00 | 0.00 | 0.00 | 94 | 1012.3 |
| 20260507080032 | 3 | 113 | 1.6 | 1.6 | 0.00 | 0.00 | 0.00 | 94 | 1012.3 |
| 20260507075527 | 3 | 49 | 0.0 | 3.2 | 0.00 | 0.00 | 0.00 | 94 | 1012.2 |
| 20260507075024 | 3 | 42 | 0.0 | 3.2 | 0.00 | 0.00 | 0.00 | 94 | 1012.4 |
| 20260507074521 | 3 | 43 | 0.0 | 3.2 | 0.00 | 0.00 | 0.00 | 93 | 1012.3 |
| 20260507074020 | 4 | 15 | 1.6 | 3.2 | 0.00 | 0.00 | 0.00 | 93 | 1012.4 |
| 20260507073515 | 3 | 97 | 0.0 | 1.6 | 0.00 | 0.00 | 0.00 | 93 | 1012.2 |
| 20260507073012 | 3 | 168 | 0.0 | 1.6 | 0.00 | 0.00 | 0.00 | 93 | 1012.2 |
| 20260507072510 | 3 | 116 | 0.0 | 3.2 | 0.00 | 0.00 | 0.00 | 93 | 1012.3 |
| 20260507072007 | 3 | 66 | 0.0 | 1.6 | 0.00 | 0.00 | 0.00 | 93 | 1012.3 |
| 20260507071504 | 3 | 53 | 0.0 | 3.2 | 0.00 | 0.00 | 0.00 | 92 | 1012.3 |
| 20260507071001 | 4 | 55 | 0.0 | 1.6 | 0.00 | 0.00 | 0.00 | 92 | 1012.5 |
| 20260507070458 | 5 | 55 | 0.0 | 3.2 | 0.00 | 0.00 | 0.00 | 91 | 1012.4 |
| 20260507065954 | 5 | 89 | 0.0 | 1.6 | 0.00 | 0.00 | 0.00 | 91 | 1012.5 |
| 20260507065451 | 5 | 113 | 0.0 | 1.6 | 0.00 | 0.00 | 0.00 | 92 | 1012.4 |
| 20260507064948 | 5 | 38 | 0.0 | 0.0 | 0.00 | 0.00 | 0.00 | 92 | 1012.5 |
| 20260507064447 | 5 | 110 | 0.0 | 1.6 | 0.00 | 0.00 | 0.00 | 92 | 1012.4 |
| 20260507063944 | 4 | 6 | 0.0 | 0.0 | 0.00 | 0.00 | 0.00 | 92 | 1012.4 |
| 20260507063441 | 4 | 46 | 1.6 | 3.2 | 0.00 | 0.00 | 0.00 | 92 | 1012.4 |
| 20260507062938 | 5 | 66 | 0.0 | 1.6 | 0.00 | 0.00 | 0.00 | 92 | 1012.3 |
| 20260507062435 | 5 | 40 | 1.6 | 3.2 | 0.00 | 0.00 | 0.00 | 91 | 1012.3 |
| 20260507061932 | 5 | 41 | 0.0 | 3.2 | 0.00 | 0.00 | 0.00 | 91 | 1012.3 |
| 20260507061430 | 5 | 50 | 1.6 | 3.2 | 0.00 | 0.00 | 0.00 | 90 | 1012.4 |
| 20260507060929 | 5 | 25 | 0.0 | 3.2 | 0.00 | 0.00 | 0.00 | 90 | 1012.6 |
| 20260507060425 | 5 | 9 | 1.6 | 3.2 | 0.00 | 0.00 | 0.00 | 89 | 1012.5 |
| 20260507055921 | 6 | 32 | 1.6 | 3.2 | 0.00 | 0.00 | 0.00 | 87 | 1012.6 |
| 20260507055416 | 6 | 77 | 0.0 | 3.2 | 0.00 | 0.00 | 0.00 | 84 | 1012.6 |
| 20260507054909 | 6 | 180 | 0.0 | 3.2 | 0.00 | 0.00 | 0.00 | 84 | 1012.7 |
| 20260507054404 | 6 | 145 | 0.0 | 1.6 | 0.00 | 0.00 | 0.00 | 83 | 1012.6 |
| 20260507053902 | 6 | 44 | 0.0 | 0.0 | 0.00 | 0.00 | 0.00 | 82 | 1012.8 |
| 20260507053359 | 7 | 37 | 0.0 | 1.6 | 0.00 | 0.00 | 0.00 | 81 | 1012.7 |
| 20260507052858 | 7 | 89 | 0.0 | 1.6 | 0.00 | 0.00 | 0.00 | 81 | 1012.7 |
| 20260507052354 | 7 | 55 | 0.0 | 1.6 | 0.00 | 0.00 | 0.00 | 80 | 1013.1 |
| 20260507051852 | 7 | 25 | 0.0 | 1.6 | 0.00 | 0.00 | 0.00 | 81 | 1013.3 |
| 20260507051349 | 7 | 31 | 0.0 | 3.2 | 0.00 | 0.00 | 0.00 | 80 | 1013.5 |
| 20260507050846 | 7 | 11 | 0.0 | 3.2 | 0.00 | 0.00 | 0.00 | 80 | 1013.3 |
| 20260507050343 | 7 | 35 | 1.6 | 3.2 | 0.00 | 0.00 | 0.00 | 80 | 1013.3 |
| 20260507045839 | 7 | 35 | 0.0 | 3.2 | 0.00 | 0.00 | 0.00 | 79 | 1013.4 |
| 20260507045336 | 7 | 23 | 3.2 | 3.2 | 0.00 | 0.00 | 0.00 | 81 | 1013.3 |
| 20260507044833 | 7 | 141 | 0.0 | 3.2 | 0.00 | 0.00 | 0.00 | 80 | 1013.4 |
| 20260507044330 | 7 | 0 | 0.0 | 3.2 | 0.00 | 0.00 | 0.00 | 80 | 1013.2 |
| 20260507043825 | 7 | 81 | 0.0 | 3.2 | 0.00 | 0.00 | 0.00 | 79 | 1013.3 |
| 20260507043322 | 7 | 116 | 0.0 | 3.2 | 0.00 | 0.00 | 0.00 | 79 | 1013.4 |
| 20260507042819 | 7 | 113 | 1.6 | 3.2 | 0.00 | 0.00 | 0.00 | 80 | 1013.2 |
| 20260507042314 | 7 | 158 | 1.6 | 3.2 | 0.00 | 0.00 | 0.00 | 81 | 1013.4 |
| 20260507041812 | 7 | 180 | 0.0 | 1.6 | 0.00 | 0.00 | 0.00 | 81 | 1013.3 |
| 20260507041308 | 7 | 12 | 1.6 | 3.2 | 0.00 | 0.00 | 0.00 | 82 | 1013.2 |
| 20260507040805 | 7 | 25 | 0.0 | 3.2 | 0.00 | 0.00 | 0.00 | 81 | 1013.3 |
| 20260507040301 | 7 | 81 | 0.0 | 4.8 | 0.00 | 0.00 | 0.00 | 83 | 1013.1 |
| 20260507035757 | 7 | 89 | 0.0 | 4.8 | 0.00 | 1.30 | 1.30 | 83 | 1013.2 |
| 20260507035252 | 7 | 157 | 0.0 | 3.2 | 0.00 | 1.30 | 1.30 | 84 | 1013.1 |
| 20260507034750 | 7 | 195 | 0.0 | 1.6 | 0.00 | 1.30 | 1.30 | 83 | 1013.1 |
| 20260507034247 | 7 | 104 | 0.0 | 1.6 | 0.00 | 1.30 | 1.30 | 83 | 1013.3 |
| 20260507033746 | 7 | 89 | 0.0 | 1.6 | 0.00 | 1.30 | 1.30 | 84 | 1013.2 |
| 20260507033243 | 7 | 106 | 0.0 | 3.2 | 0.00 | 1.30 | 1.30 | 84 | 1012.8 |
| 20260507032740 | 7 | 116 | 0.0 | 1.6 | 0.00 | 1.30 | 1.30 | 84 | 1012.8 |
| 20260507032236 | 7 | 113 | 0.0 | 1.6 | 0.00 | 1.30 | 1.30 | 84 | 1013.0 |
| 20260507031732 | 7 | 116 | 0.0 | 1.6 | 0.00 | 1.30 | 1.30 | 84 | 1012.8 |
| 20260507031230 | 8 | 103 | 0.0 | 3.2 | 0.00 | 1.30 | 1.30 | 84 | 1012.8 |
| 20260507030726 | 8 | 214 | 0.0 | 3.2 | 0.00 | 1.30 | 1.30 | 82 | 1012.7 |
| 20260507030224 | 8 | 135 | 0.0 | 3.2 | 0.00 | 1.30 | 1.30 | 81 | 1013.0 |
| 20260507025721 | 8 | 75 | 0.0 | 3.2 | 0.00 | 1.30 | 1.30 | 76 | 1013.0 |
| 20260507025218 | 8 | 66 | 0.0 | 1.6 | 0.00 | 1.30 | 1.30 | 77 | 1012.8 |
| 20260507024716 | 8 | 32 | 0.0 | 1.6 | 0.00 | 1.30 | 1.30 | 77 | 1012.6 |
| 20260507024213 | 8 | 107 | 1.6 | 3.2 | 0.00 | 1.30 | 1.30 | 78 | 1012.7 |
| 20260507023708 | 8 | 57 | 0.0 | 1.6 | 0.00 | 1.30 | 1.30 | 75 | 1012.5 |
| 20260507023206 | 8 | 50 | 0.0 | 0.0 | 0.00 | 1.30 | 1.30 | 74 | 1012.7 |
| 20260507022703 | 8 | 53 | 0.0 | 3.2 | 0.00 | 1.30 | 1.30 | 74 | 1012.5 |
| 20260507022158 | 8 | 22 | 0.0 | 3.2 | 0.00 | 1.30 | 1.30 | 77 | 1012.7 |
| 20260507021655 | 8 | 86 | 1.6 | 3.2 | 0.00 | 1.30 | 1.30 | 74 | 1012.5 |
| 20260507021150 | 8 | 50 | 0.0 | 3.2 | 0.00 | 1.30 | 1.30 | 73 | 1012.5 |
| 20260507020649 | 8 | 174 | 0.0 | 3.2 | 0.00 | 1.30 | 1.30 | 73 | 1012.5 |
| 20260507020144 | 8 | 18 | 1.6 | 3.2 | 0.00 | 1.30 | 1.30 | 74 | 1012.2 |
| 20260507015643 | 8 | 75 | 0.0 | 3.2 | 0.00 | 1.30 | 1.30 | 74 | 1012.2 |
| 20260507015140 | 8 | 13 | 1.6 | 3.2 | 0.00 | 1.30 | 1.30 | 74 | 1012.3 |
| 20260507014636 | 8 | 31 | 1.6 | 4.8 | 0.00 | 1.30 | 1.30 | 72 | 1012.3 |
| 20260507014132 | 8 | 8 | 0.0 | 3.2 | 0.00 | 1.30 | 1.30 | 72 | 1012.0 |
| 20260507013630 | 9 | 15 | 1.6 | 3.2 | 0.00 | 1.30 | 1.30 | 72 | 1011.9 |
| 20260507013127 | 9 | 131 | 1.6 | 3.2 | 0.00 | 1.30 | 1.30 | 70 | 1011.8 |